{"data":{"norad_id":66670,"intl_designator":"2025-276E","name":"HUNITY","alt_names":[],"object_type":"PAYLOAD","status":"ACTIVE","operator":null,"country":"HUN","launch_date":"2025-11-28","launch_site_code":"AFWTR","launch_vehicle":null,"mission":null,"orbit_class":"UNKNOWN","rcs_meters":null,"size_class":null,"mass_kg":null,"dimensions":null,"purposes":[],"wikipedia_slug":null,"has_3d_model":false,"image_url":null,"decayed_at":null,"tle_current":{"epoch":"2026-09-20T11:02:04.629120Z","epoch_age_seconds":124416,"freshness":"FRESH","line1":"1 66670U 25276E   26263.45977580  .00021311  00000+0  69985-3 0  9998","line2":"2 66670  97.3982 337.1968 0005922  45.3159 314.8564 15.31580163 45044","mean_motion":15.31580163,"eccentricity":0.0005922,"inclination_deg":97.3982,"raan_deg":337.1968,"arg_perigee_deg":45.3159,"mean_anomaly_deg":314.8564,"bstar":0.00069985,"rev_number":4504,"period_min":94.020543931529,"perigee_km":467.04112985838,"apogee_km":475.1533628998,"semimajor_km":6849.2342463791,"source":"CELESTRAK","updated_at":"2026-09-21T09:00:16.120107Z"}}}